Regional Weather Roundup
Issued by NWS

Home | Current Version | Previous Version | Text Only | Print | Product List | Glossary On
Versions: 1 2 3 4 5 6 7 8 9 10 11 12 13 14 15 16 17 18 19 20 21 22 23 24 25 26 27 28 29 30 31 32 33 34 35 36 37 38 39 40 41 42 43 44 45 46 47 48 49 50
000
ASUS43 KMKX 240259
RWRWI

WISCONSIN REGIONAL WEATHER ROUNDUP
NATIONAL WEATHER SERVICE MILWAUKEE/SULLIVAN WI
1000 PM CDT WED JUL 23 2014

NOTE: "FAIR" INDICATES FEW OR NO CLOUDS BELOW 12,000 FEET WITH NO
SIGNIFICANT WEATHER AND/OR OBSTRUCTIONS TO VISIBILITY.

WIZ001-002-006>008-014>016-023>028-240400-
NORTHWEST WISCONSIN

CITY           SKY/WX    TMP DP  RH WIND       PRES   REMARKS
SUPERIOR ARPT  CLEAR     58  54  86 NE5       30.18S
ASHLAND        CLEAR     55  53  93 CALM      30.19S
HAYWARD        CLEAR     61  57  87 CALM      30.19S
SIREN          CLEAR     63  58  84 CALM      30.18S
RICE LAKE      CLEAR     64  55  72 CALM      30.19S
LADYSMITH      CLEAR     61  55  81 CALM      30.20S
EAU CLAIRE     CLEAR     65  57  75 NE5       30.16S
MENOMONIE      CLEAR     66  59  77 CALM      30.17S
NEW RICHMOND   CLEAR     64  59  84 NE3       30.18R
OSCEOLA        CLEAR     65  59  81 CALM      30.19S
$$

WIZ003>005-009-010-017-018-240400-
NORTH CENTRAL WISCONSIN

CITY           SKY/WX    TMP DP  RH WIND       PRES   REMARKS
WOODRUFF       CLEAR     57  46  66 CALM      30.21R
RHINELANDER    MOCLDY    57  53  86 CALM      30.21R
EAGLE RIVER    CLEAR     55  50  81 CALM      30.20S
LAND O LAKES   CLEAR     53  51  92 CALM      30.21S
PHILLIPS       CLEAR     56  51  84 CALM      30.20S
TOMAHAWK       MOCLDY    53  51  94 CALM      30.20R
MEDFORD        CLEAR     57  55  92 CALM      30.19S
MERRILL        CLEAR     59  55  87 CALM      30.19R
$$

WIZ029-030-035-036-043>047-240400-
CENTRAL WISCONSIN

CITY           SKY/WX    TMP DP  RH WIND       PRES   REMARKS
WAUSAU         CLEAR     66  54  65 N5        30.17R
MOSINEE        PTCLDY    64  54  68 CALM      30.19R
MARSHFIELD     MOCLDY    66  57  72 N3        30.17S
STEVENS POINT  CLOUDY    62  54  76 CALM      30.18R
WAUPACA        PTCLDY    63  56  80 CALM      30.17S
WAUTOMA        NOT AVBL
WISC RAPIDS    PTCLDY    63  55  75 CALM      30.18R
CAMP DOUGLAS   NOT AVBL
$$

WIZ011>013-019>022-031-037>040-048>050-240400-
NORTHEAST WISCONSIN

CITY           SKY/WX    TMP DP  RH WIND       PRES   REMARKS
ANTIGO         PTCLDY    58  55  87 NE3       30.20R
STURGEON BAY   CLEAR     61  46  59 E5        30.18R
GREEN BAY      CLEAR     62  49  62 E7        30.17S
MANITOWOC      NOT AVBL
APPLETON       PTCLDY    64  48  55 E7        30.18R
CLINTONVILLE   MOCLDY    61  52  72 CALM      30.18R
OSHKOSH        CLEAR     61  53  75 SE5       30.17R
$$

WIZ032>034-041-042-053>061-240400-
SOUTHWEST WISCONSIN

CITY           SKY/WX    TMP DP  RH WIND       PRES   REMARKS
LA CROSSE      PTCLDY    71  59  65 NW3       30.14S
SPARTA         CLEAR     62  56  83 CALM      30.17R
VIROQUA        FAIR      64  60  86 CALM      30.17S
BOSCOBEL       CLEAR     66  60  81 CALM      30.14S
PRAIRIE DU CHI CLEAR     69  57  65 CALM      30.14R
PLATTEVILLE    FAIR      66  58  74 N3        30.16R
$$

WIZ056-057-062-063-064-067-068-240400-
SOUTH CENTRAL WISCONSIN

CITY           SKY/WX    TMP DP  RH WIND       PRES   REMARKS
BARABOO/DELLS  MOCLDY    65  56  74 CALM      30.16R
LONE ROCK      NOT AVBL
WATERTOWN      CLEAR     60  54  79 E3        30.17R
MADISON        CLEAR     65  56  72 SE10      30.16R
MIDDLETON      FAIR      67  53  59 E7        30.16S
MONROE         CLOUDY    64  57  77 E7        30.16R
JANESVILLE     PTCLDY    61  50  67 E5        30.17R
$$

WIZ051-052-058>065-066-070>072-240400-
SOUTHEAST WISCONSIN

CITY           SKY/WX    TMP DP  RH WIND       PRES   REMARKS
MILWAUKEE      PTCLDY    59  51  75 N7        30.17R
WAUKESHA       CLEAR     57  46  67 E3        30.19R
MILWAUKEE/TIMM CLEAR     59  48  67 CALM      30.18S
RACINE         CLEAR     58  53  84 N7        30.18R
BURLINGTON     CLEAR     54  50  85 CALM      30.17S
KENOSHA        CLEAR     58  53  84 N6        30.17R
FOND DU LAC    CLEAR     59  50  72 S3        30.18S
SHEBOYGAN      CLEAR     54  50  86 CALM      30.18R
WEST BEND      CLEAR     57  46  67 CALM      30.18S
JUNEAU         CLEAR     60  50  70 E6        30.19R
$$

LSZ147-162-240400-
LAKE SUPERIOR

STATION/POSITION TIME  TEMP    WIND        PRES    WAVE
                       AIR SEA DIR/SP/G            HT/PER
                 (UTC) (F)     (DEG/KT/KT) (MB)    (FT/S)
$$

LMZ867-665-643>646-240400-
LAKE MICHIGAN

STATION/POSITION TIME  TEMP    WIND        PRES    WAVE
                       AIR SEA DIR/SP/G            HT/PER
                 (UTC) (F)     (DEG/KT/KT) (MB)    (FT/S)
$$

TC  - TEMPERATURE IN CELSIUS
VSB - VISIBILITY IN STATUTE MILES
WCI - WIND CHILL INDEX
HX  - HEAT INDEX



USA.gov is the U.S. government's official web portal to all federal, state and local government web resources and services.